スペースウォッチ彗星

P/2006 UR111 ( Spacewatch )

English version
Home page
Updated on October 7, 2017

---------------------------------------------------------------------

・ プロフィール

発見日 2006年10月19日
発見光度 19.9等
発見者 J. V. Scotti (Spacewatch, Kitt Peak)

・ 軌道要素

Epoch 2007 June 29.0 TT = JDT 2454280.5
T 2007 July 2.65430 TT                                  MPCW
q   2.7863366            (2000.0)            P               Q
n   0.08961929     Peri.  219.21511     +0.46670903     -0.87925146
a   4.9454034      Node   203.43841     +0.85972963     +0.47634112
e   0.4365805      Incl.   13.87592     +0.20747925     +0.00400049
P  11.00
From 48 observations 2006 Oct. 11-2017 Sept. 27, mean residual 0".3.

・ 光度変化

        m1 = 12.5 + 5 logΔ + 10.0 log r

---------------------------------------------------------------------

軌道要素はM.P.E.C. 2017-S197に掲載されたものです。
光度グラフはComet for Windowsで作成したものです。

---------------------------------------------------------------------

Copyright(C) Seiichi Yoshida (comet@aerith.net). All rights reserved.